This is the latest recevied weather packets stored in our database for station/object KB6HGN. If no packets are shown the sender has not sent any weather packets the latest 10 day(s).
| Time | Temp. | Humidity | Pressure | Rain* | Wind** | Luminosity | Snow |
|---|---|---|---|---|---|---|---|
| 1778376304 | 28.89° C | 32% | 1011.2 hPa | 0 mm | - | 77 W/m² | - |
| 1778374504 | 29.44° C | 31% | 1011.1 hPa | 0 mm | - | 183 W/m² | - |
| 1778371505 | 30.56° C | 29% | 1010.8 hPa | 0 mm | - | 407 W/m² | - |
| 1778370304 | 30.56° C | 29% | 1010.8 hPa | 0 mm | - | 479 W/m² | - |
| 1778369104 | 31.11° C | 29% | 1010.8 hPa | 0 mm | - | 545 W/m² | - |
| 1778368205 | 31.11° C | 30% | 1010.9 hPa | 0 mm | - | 589 W/m² | - |
| 1778366704 | 31.11° C | 28% | 1011.2 hPa | 0 mm | - | 672 W/m² | - |
| 1778365804 | 31.11° C | 28% | 1011.5 hPa | 0 mm | - | 702 W/m² | - |
| 1778364004 | 31.11° C | 27% | 1011.5 hPa | 0 mm | - | 770 W/m² | - |
| 1778362204 | 30.56° C | 26% | 1011.9 hPa | 0 mm | - | 825 W/m² | - |
| 1778361308 | 31.11° C | 26% | 1012.2 hPa | 0 mm | - | 849 W/m² | - |
| 1778360705 | 30° C | 28% | 1012.2 hPa | 0 mm | - | 862 W/m² | - |
| 1778359504 | 30° C | 29% | 1012.5 hPa | 0 mm | - | 894 W/m² | - |
| 1778357705 | 28.89° C | 30% | 1012.7 hPa | 0 mm | - | 917 W/m² | - |
| 1778356204 | 28.33° C | 34% | 1012.8 hPa | 0 mm | - | 923 W/m² | - |
| 1778355904 | 28.33° C | 34% | 1013 hPa | 0 mm | - | 923 W/m² | - |
| 1778354704 | 28.33° C | 35% | 1013.2 hPa | 0 mm | - | 918 W/m² | - |
| 1778353506 | 27.22° C | 36% | 1013.2 hPa | 0 mm | - | 908 W/m² | - |
| 1778352604 | 26.67° C | 39% | 1013.5 hPa | 0 mm | - | 895 W/m² | - |
| 1778351404 | 25.56° C | 40% | 1013.5 hPa | 0 mm | - | 883 W/m² | - |
| 1778350504 | 25° C | 43% | 1013.9 hPa | 0 mm | - | 862 W/m² | - |
| 1778349903 | 25° C | 45% | 1013.8 hPa | 0 mm | - | 846 W/m² | - |
| 1778346604 | 22.22° C | 57% | 1014.2 hPa | 0 mm | - | 733 W/m² | - |
| 1778346304 | 22.22° C | 58% | 1014.2 hPa | 0 mm | - | 728 W/m² | - |
| 1778345404 | 21.11° C | 61% | 1014.2 hPa | 0 mm | - | 689 W/m² | - |
* Rain latest hour (hover to see other rain measurements)
** Current wind speed in m/s (hover to see current wind gust speed)